| time (UTC) | temp F | wind direction | speed knots | gust knots | rain 1hr in | rain 24hr in | rain mn in | humidity % | barometer mb |
| 20260504194055 | 76 | 260 | 7.8 | 15.6 | 0.00 | 0.00 | 0.00 | 45 | 1015.4 |
| 20260504193824 | 76 | 294 | 7.0 | 15.6 | 0.00 | 0.00 | 0.00 | 45 | 1015.5 |
| 20260504193055 | 77 | 270 | 5.2 | 15.6 | 0.00 | 0.00 | 0.00 | 44 | 1015.6 |
| 20260504192557 | 78 | 281 | 1.7 | 13.9 | 0.00 | 0.00 | 0.00 | 42 | 1015.5 |
| 20260504192055 | 77 | 237 | 6.1 | 13.9 | 0.00 | 0.00 | 0.00 | 41 | 1015.6 |
| 20260504191556 | 77 | 229 | 7.8 | 10.4 | 0.00 | 0.00 | 0.00 | 45 | 1016.0 |
| 20260504191055 | 77 | 242 | 1.7 | 10.4 | 0.00 | 0.00 | 0.00 | 46 | 1015.7 |
| 20260504190556 | 77 | 237 | 7.8 | 12.2 | 0.00 | 0.00 | 0.00 | 44 | 1015.8 |
| 20260504190055 | 77 | 241 | 4.3 | 13.9 | 0.00 | 0.00 | 0.00 | 42 | 1015.8 |
| 20260504185555 | 76 | 201 | 7.8 | 13.9 | 0.00 | 0.00 | 0.00 | 44 | 1016.1 |
| 20260504185320 | 77 | 260 | 7.8 | 18.2 | 0.00 | 0.00 | 0.00 | 44 | 1016.2 |
| 20260504184818 | 76 | 197 | 3.5 | 18.2 | 0.00 | 0.00 | 0.00 | 43 | 1016.2 |
| 20260504184056 | 76 | 209 | 2.6 | 13.9 | 0.00 | 0.00 | 0.00 | 46 | 1016.3 |
| 20260504183554 | 76 | 174 | 5.2 | 13.9 | 0.00 | 0.00 | 0.00 | 44 | 1016.4 |
| 20260504183056 | 76 | 239 | 7.0 | 12.2 | 0.00 | 0.00 | 0.00 | 44 | 1016.3 |
| 20260504182555 | 77 | 169 | 1.7 | 13.9 | 0.00 | 0.00 | 0.00 | 45 | 1016.4 |
| 20260504182056 | 75 | 239 | 9.6 | 13.9 | 0.00 | 0.00 | 0.00 | 47 | 1016.4 |
| 20260504181813 | 76 | 263 | 7.0 | 12.2 | 0.00 | 0.00 | 0.00 | 47 | 1016.5 |
| 20260504181056 | 75 | 173 | 5.2 | 10.4 | 0.00 | 0.00 | 0.00 | 49 | 1016.5 |
| 20260504180555 | 75 | 199 | 5.2 | 13.9 | 0.00 | 0.00 | 0.00 | 48 | 1016.6 |
| 20260504180055 | 75 | 167 | 8.7 | 18.2 | 0.00 | 0.00 | 0.00 | 47 | 1016.7 |
| 20260504175555 | 75 | 234 | 7.0 | 18.2 | 0.00 | 0.00 | 0.00 | 50 | 1016.8 |
| 20260504175055 | 76 | 201 | 3.5 | 7.8 | 0.00 | 0.00 | 0.00 | 49 | 1016.7 |
| 20260504174555 | 75 | 311 | 0.0 | 12.2 | 0.00 | 0.00 | 0.00 | 48 | 1016.9 |
| 20260504174055 | 74 | 252 | 7.0 | 12.2 | 0.00 | 0.00 | 0.00 | 50 | 1017.1 |
| 20260504173555 | 75 | 250 | 7.0 | 10.4 | 0.00 | 0.00 | 0.00 | 49 | 1016.9 |
| 20260504173319 | 74 | 233 | 1.7 | 21.7 | 0.00 | 0.00 | 0.00 | 54 | 1017.2 |
| 20260504172555 | 73 | 234 | 4.3 | 21.7 | 0.00 | 0.00 | 0.00 | 49 | 1017.3 |
| 20260504172055 | 74 | 66 | 4.3 | 12.2 | 0.00 | 0.00 | 0.00 | 49 | 1017.3 |
| 20260504171556 | 73 | 292 | 8.7 | 15.6 | 0.00 | 0.00 | 0.00 | 49 | 1017.5 |
| 20260504171055 | 73 | 257 | 3.5 | 15.6 | 0.00 | 0.00 | 0.00 | 52 | 1017.5 |
| 20260504170556 | 73 | 305 | 5.2 | 13.9 | 0.00 | 0.00 | 0.00 | 51 | 1017.5 |
| 20260504150817 | 67 | 226 | 12.2 | 13.9 | 0.00 | 0.00 | 0.00 | 61 | 1018.3 |
| 20260504141314 | 61 | 238 | 1.7 | 7.8 | 0.00 | 0.00 | 0.00 | 73 | 1019.1 |
| 20260504140556 | 61 | 203 | 2.6 | 10.4 | 0.00 | 0.00 | 0.00 | 72 | 1019.1 |
| 20260504130555 | 55 | 190 | 1.7 | 1.7 | 0.00 | 0.00 | 0.00 | 84 | 1018.9 |
| 20260504120316 | 43 | 268 | 0.0 | 0.0 | 0.00 | 0.00 | 0.00 | 99 | 1018.8 |
| 20260504110543 | 40 | 268 | 0.0 | 0.0 | 0.00 | 0.00 | 0.00 | 99 | 1018.3 |
| 20260504100502 | 40 | 268 | 0.0 | 0.0 | 0.00 | 0.00 | 0.00 | 99 | 1017.8 |
| 20260504081443 | 42 | 268 | 0.0 | 0.0 | 0.00 | 0.00 | 0.00 | 99 | 1018.1 |
| 20260504080943 | 42 | 268 | 0.0 | 0.0 | 0.00 | 0.00 | 0.00 | 99 | 1018.2 |
| 20260504080443 | 42 | 268 | 0.0 | 0.0 | 0.00 | 0.00 | 0.00 | 99 | 1018.2 |
| 20260504080431 | 42 | 268 | 0.0 | 0.0 | 0.00 | 0.00 | 0.00 | 99 | 1018.2 |
| 20260504050432 | 46 | 268 | 0.0 | 0.0 | 0.00 | 0.00 | 0.00 | 99 | 1018.8 |
| 20260504050154 | 46 | 269 | 0.0 | 0.0 | 0.00 | 0.00 | 0.00 | 99 | 1019.0 |
| 20260504045432 | 46 | 269 | 0.0 | 0.0 | 0.00 | 0.00 | 0.00 | 99 | 1018.9 |
| 20260504044920 | 46 | 269 | 0.0 | 0.0 | 0.00 | 0.00 | 0.00 | 99 | 1018.9 |
| 20260504044419 | 46 | 269 | 0.0 | 0.0 | 0.00 | 0.00 | 0.00 | 99 | 1019.0 |
| 20260504043919 | 46 | 269 | 0.0 | 0.0 | 0.00 | 0.00 | 0.00 | 99 | 1019.2 |
| 20260504043419 | 46 | 269 | 0.0 | 0.0 | 0.00 | 0.00 | 0.00 | 99 | 1019.1 |
| 20260504042919 | 47 | 268 | 0.0 | 0.0 | 0.00 | 0.00 | 0.00 | 99 | 1019.1 |
| 20260504042422 | 47 | 268 | 0.0 | 0.0 | 0.00 | 0.00 | 0.00 | 99 | 1019.1 |
| 20260504041919 | 47 | 268 | 0.0 | 0.0 | 0.00 | 0.00 | 0.00 | 99 | 1019.1 |
| 20260504041419 | 47 | 268 | 0.0 | 0.0 | 0.00 | 0.00 | 0.00 | 99 | 1019.1 |
| 20260504041141 | 47 | 268 | 0.0 | 0.0 | 0.00 | 0.00 | 0.00 | 99 | 1019.2 |
| 20260504040420 | 47 | 268 | 0.0 | 0.0 | 0.00 | 0.00 | 0.00 | 99 | 1019.1 |
| 20260504035919 | 47 | 268 | 0.0 | 0.0 | 0.00 | 0.00 | 0.00 | 99 | 1019.1 |
| 20260504035408 | 48 | 268 | 0.0 | 0.0 | 0.00 | 0.00 | 0.00 | 99 | 1019.3 |
| 20260504034907 | 48 | 268 | 0.0 | 0.0 | 0.00 | 0.00 | 0.00 | 99 | 1019.3 |
| 20260504034407 | 48 | 268 | 0.0 | 0.0 | 0.00 | 0.00 | 0.00 | 99 | 1019.4 |
| 20260504034127 | 48 | 268 | 0.0 | 0.0 | 0.00 | 0.00 | 0.00 | 99 | 1019.2 |
| 20260504033626 | 48 | 268 | 0.0 | 0.0 | 0.00 | 0.00 | 0.00 | 99 | 1019.3 |
| 20260504033128 | 48 | 268 | 0.0 | 0.0 | 0.00 | 0.00 | 0.00 | 99 | 1019.2 |
| 20260504032633 | 49 | 269 | 0.0 | 0.0 | 0.00 | 0.00 | 0.00 | 99 | 1019.2 |
| 20260504031907 | 49 | 269 | 0.0 | 0.0 | 0.00 | 0.00 | 0.00 | 99 | 1019.1 |
| 20260504031407 | 49 | 269 | 0.0 | 0.0 | 0.00 | 0.00 | 0.00 | 99 | 1019.3 |
| 20260504030907 | 49 | 269 | 0.0 | 0.0 | 0.00 | 0.00 | 0.00 | 99 | 1019.2 |
| 20260504030407 | 49 | 269 | 0.0 | 0.0 | 0.00 | 0.00 | 0.00 | 98 | 1019.2 |
| 20260504025908 | 49 | 269 | 0.0 | 0.0 | 0.00 | 0.00 | 0.00 | 98 | 1019.2 |
| 20260504025407 | 49 | 269 | 0.0 | 0.0 | 0.00 | 0.00 | 0.00 | 98 | 1019.1 |
| 20260504024907 | 50 | 268 | 0.0 | 0.0 | 0.00 | 0.00 | 0.00 | 98 | 1019.2 |
| 20260504024408 | 50 | 268 | 0.0 | 0.0 | 0.00 | 0.00 | 0.00 | 98 | 1019.2 |
| 20260504023907 | 50 | 268 | 0.0 | 0.0 | 0.00 | 0.00 | 0.00 | 97 | 1019.2 |
| 20260504023856 | 50 | 269 | 0.0 | 0.0 | 0.00 | 0.00 | 0.00 | 97 | 1019.2 |
| 20260504022907 | 51 | 268 | 0.0 | 0.0 | 0.00 | 0.00 | 0.00 | 97 | 1019.0 |
| 20260504022407 | 51 | 269 | 0.0 | 0.0 | 0.00 | 0.00 | 0.00 | 96 | 1019.0 |
| 20260504022131 | 51 | 269 | 0.0 | 0.0 | 0.00 | 0.00 | 0.00 | 95 | 1019.0 |
| 20260504021407 | 51 | 269 | 0.0 | 0.0 | 0.00 | 0.00 | 0.00 | 95 | 1019.1 |
| 20260504020907 | 51 | 269 | 0.0 | 0.0 | 0.00 | 0.00 | 0.00 | 94 | 1018.9 |
| 20260504020407 | 52 | 269 | 0.0 | 0.0 | 0.00 | 0.00 | 0.00 | 94 | 1019.0 |
| 20260504020117 | 52 | 269 | 0.0 | 0.0 | 0.00 | 0.00 | 0.00 | 93 | 1018.9 |
| 20260504015355 | 53 | 269 | 0.0 | 0.0 | 0.00 | 0.00 | 0.00 | 94 | 1018.8 |
| 20260504015122 | 53 | 269 | 0.0 | 0.0 | 0.00 | 0.00 | 0.00 | 92 | 1018.7 |
| 20260504014344 | 53 | 269 | 0.0 | 0.0 | 0.00 | 0.00 | 0.00 | 92 | 1018.7 |
| 20260504013844 | 53 | 269 | 0.0 | 0.0 | 0.00 | 0.00 | 0.00 | 91 | 1018.6 |
| 20260504013342 | 54 | 269 | 0.0 | 0.0 | 0.00 | 0.00 | 0.00 | 91 | 1018.9 |
| 20260504013105 | 54 | 269 | 0.0 | 0.0 | 0.00 | 0.00 | 0.00 | 90 | 1018.7 |
| 20260504012344 | 54 | 269 | 0.0 | 0.0 | 0.00 | 0.00 | 0.00 | 89 | 1018.5 |
| 20260504011843 | 54 | 269 | 0.0 | 0.0 | 0.00 | 0.00 | 0.00 | 88 | 1018.6 |
| 20260504011343 | 55 | 269 | 0.0 | 0.0 | 0.00 | 0.00 | 0.00 | 85 | 1018.5 |
| 20260504011051 | 55 | 269 | 0.0 | 0.0 | 0.00 | 0.00 | 0.00 | 84 | 1018.5 |
| 20260504010331 | 56 | 269 | 0.0 | 0.0 | 0.00 | 0.00 | 0.00 | 82 | 1018.5 |
| 20260504005832 | 56 | 269 | 0.0 | 0.0 | 0.00 | 0.00 | 0.00 | 78 | 1018.5 |
| 20260504005331 | 56 | 269 | 0.0 | 0.0 | 0.00 | 0.00 | 0.00 | 78 | 1018.6 |
| 20260504004833 | 57 | 269 | 0.0 | 0.0 | 0.00 | 0.00 | 0.00 | 79 | 1018.6 |
| 20260504004331 | 58 | 269 | 0.0 | 0.0 | 0.00 | 0.00 | 0.00 | 75 | 1018.5 |
| 20260504003832 | 59 | 269 | 0.0 | 0.0 | 0.00 | 0.00 | 0.00 | 76 | 1018.3 |
| 20260504003536 | 59 | 269 | 0.0 | 0.0 | 0.00 | 0.00 | 0.00 | 70 | 1018.3 |
| 20260504003038 | 60 | 269 | 0.0 | 0.0 | 0.00 | 0.00 | 0.00 | 71 | 1018.3 |
| 20260504002319 | 60 | 269 | 0.0 | 0.0 | 0.00 | 0.00 | 0.00 | 70 | 1018.2 |
| 20260504001819 | 61 | 269 | 0.0 | 0.0 | 0.00 | 0.00 | 0.00 | 69 | 1018.2 |
| 20260504001319 | 62 | 269 | 0.0 | 0.0 | 0.00 | 0.00 | 0.00 | 70 | 1018.3 |
| 20260504000819 | 63 | 269 | 0.0 | 0.0 | 0.00 | 0.00 | 0.00 | 66 | 1018.1 |
| 20260504000319 | 64 | 269 | 0.0 | 1.7 | 0.00 | 0.00 | 0.00 | 66 | 1018.2 |
| 20260503235807 | 65 | 269 | 0.0 | 1.7 | 0.00 | 0.00 | 0.00 | 61 | 1018.2 |
| 20260503235529 | 66 | 269 | 0.0 | 1.7 | 0.00 | 0.00 | 0.00 | 55 | 1018.3 |
| 20260503235415 | 67 | 269 | 0.9 | 1.7 | 0.00 | 0.00 | 0.00 | 54 | 1018.1 |
| 20260503234307 | 68 | 269 | 1.7 | 3.5 | 0.00 | 0.00 | 0.00 | 50 | 1018.1 |
| 20260503233807 | 69 | 269 | 0.9 | 3.5 | 0.00 | 0.00 | 0.00 | 52 | 1018.1 |
| 20260503233307 | 69 | 271 | 0.9 | 3.5 | 0.00 | 0.00 | 0.00 | 50 | 1018.1 |
| 20260503232807 | 71 | 272 | 1.7 | 1.7 | 0.00 | 0.00 | 0.00 | 54 | 1018.2 |
| 20260503232307 | 71 | 273 | 0.9 | 6.1 | 0.00 | 0.00 | 0.00 | 43 | 1018.2 |
| 20260503231807 | 70 | 272 | 1.7 | 6.1 | 0.00 | 0.00 | 0.00 | 44 | 1018.2 |
| 20260503231307 | 70 | 264 | 1.7 | 6.1 | 0.00 | 0.00 | 0.00 | 42 | 1018.3 |
| 20260503230807 | 70 | 283 | 0.0 | 6.1 | 0.00 | 0.00 | 0.00 | 44 | 1018.3 |
| 20260503230307 | 71 | 40 | 1.7 | 7.8 | 0.00 | 0.00 | 0.00 | 39 | 1018.3 |
| 20260503230030 | 70 | 303 | 6.1 | 7.8 | 0.00 | 0.00 | 0.00 | 39 | 1018.3 |
| 20260503225307 | 70 | 313 | 3.5 | 7.8 | 0.00 | 0.00 | 0.00 | 42 | 1018.3 |
| 20260503225025 | 70 | 17 | 5.2 | 6.1 | 0.00 | 0.00 | 0.00 | 38 | 1018.5 |
| 20260503224307 | 70 | 317 | 2.6 | 6.1 | 0.00 | 0.00 | 0.00 | 37 | 1018.2 |
| 20260503223808 | 71 | 326 | 4.3 | 7.8 | 0.00 | 0.00 | 0.00 | 38 | 1018.4 |
| 20260503223307 | 70 | 270 | 5.2 | 12.2 | 0.00 | 0.00 | 0.00 | 40 | 1018.5 |
| 20260503223026 | 70 | 339 | 2.6 | 12.2 | 0.00 | 0.00 | 0.00 | 37 | 1018.4 |
| 20260503222525 | 70 | 302 | 8.7 | 12.2 | 0.00 | 0.00 | 0.00 | 38 | 1018.5 |
| 20260503222027 | 70 | 1 | 6.1 | 12.2 | 0.00 | 0.00 | 0.00 | 40 | 1018.5 |
| 20260503221307 | 71 | 258 | 6.1 | 10.4 | 0.00 | 0.00 | 0.00 | 41 | 1018.6 |
| 20260503220807 | 71 | 243 | 7.8 | 12.2 | 0.00 | 0.00 | 0.00 | 39 | 1018.4 |
| 20260503220307 | 71 | 279 | 6.1 | 12.2 | 0.00 | 0.00 | 0.00 | 41 | 1018.5 |
| 20260503220247 | 70 | 250 | 7.0 | 12.2 | 0.00 | 0.00 | 0.00 | 40 | 1018.4 |
| 20260503215526 | 70 | 323 | 4.3 | 13.9 | 0.00 | 0.00 | 0.00 | 40 | 1018.5 |
| 20260503214807 | 70 | 349 | 8.7 | 13.9 | 0.00 | 0.00 | 0.00 | 40 | 1018.5 |
| 20260503214307 | 70 | 272 | 7.0 | 12.2 | 0.00 | 0.00 | 0.00 | 41 | 1018.5 |
| 20260503213807 | 70 | 21 | 3.5 | 10.4 | 0.00 | 0.00 | 0.00 | 40 | 1018.7 |
| 20260503213307 | 70 | 328 | 5.2 | 12.2 | 0.00 | 0.00 | 0.00 | 40 | 1018.7 |
| 20260503212807 | 70 | 12 | 4.3 | 12.2 | 0.00 | 0.00 | 0.00 | 42 | 1018.5 |
| 20260503212307 | 70 | 265 | 4.3 | 13.9 | 0.00 | 0.00 | 0.00 | 39 | 1018.7 |
| 20260503211807 | 70 | 269 | 2.6 | 13.9 | 0.00 | 0.00 | 0.00 | 42 | 1018.9 |
| 20260503211307 | 72 | 5 | 9.6 | 13.9 | 0.00 | 0.00 | 0.00 | 41 | 1018.7 |
| 20260503210807 | 71 | 347 | 5.2 | 12.2 | 0.00 | 0.00 | 0.00 | 39 | 1018.8 |
| 20260503210307 | 71 | 253 | 7.0 | 12.2 | 0.00 | 0.00 | 0.00 | 39 | 1018.9 |
| 20260503205807 | 70 | 301 | 3.5 | 12.2 | 0.00 | 0.00 | 0.00 | 39 | 1018.8 |
| 20260503205307 | 70 | 261 | 7.0 | 12.2 | 0.00 | 0.00 | 0.00 | 42 | 1018.9 |
| 20260503204807 | 70 | 261 | 3.5 | 10.4 | 0.00 | 0.00 | 0.00 | 42 | 1018.9 |
| 20260503204531 | 70 | 273 | 7.0 | 13.9 | 0.00 | 0.00 | 0.00 | 41 | 1019.1 |
| 20260503204028 | 70 | 250 | 3.5 | 13.9 | 0.00 | 0.00 | 0.00 | 39 | 1019.2 |
| 20260503203307 | 70 | 308 | 7.0 | 15.6 | 0.00 | 0.00 | 0.00 | 39 | 1019.2 |
| 20260503202807 | 70 | 339 | 10.4 | 15.6 | 0.00 | 0.00 | 0.00 | 39 | 1019.4 |
| 20260503202307 | 70 | 25 | 5.2 | 12.2 | 0.00 | 0.00 | 0.00 | 40 | 1019.4 |
| 20260503201807 | 69 | 311 | 7.0 | 20.0 | 0.00 | 0.00 | 0.00 | 41 | 1019.4 |
| 20260503201525 | 69 | 353 | 7.0 | 20.0 | 0.00 | 0.00 | 0.00 | 43 | 1019.5 |
| 20260503200808 | 69 | 289 | 7.0 | 20.0 | 0.00 | 0.00 | 0.00 | 44 | 1019.6 |
| 20260503200526 | 69 | 343 | 3.5 | 15.6 | 0.00 | 0.00 | 0.00 | 43 | 1019.7 |
| 20260503195808 | 69 | 343 | 8.7 | 15.6 | 0.00 | 0.00 | 0.00 | 43 | 1019.8 |
| 20260503195307 | 69 | 243 | 6.1 | 15.6 | 0.00 | 0.00 | 0.00 | 46 | 1019.9 |
| 20260503194810 | 68 | 300 | 6.1 | 18.2 | 0.00 | 0.00 | 0.00 | 46 | 1020.0 |